Location: Melbourne
(37.8170°S, 144.9670°E)
Time: 10:26:45
(UTC+10:00)

Vanguard 1 Rocket - Visible Passes

Search period start: 07 May 2016 00:00
Search period end: 17 May 2016 00:00
Orbit: 652 x 4225 km, 34.3° (Epoch: 05 May)

Date Brightness Start Highest point End Pass type
(mag) Time Alt. Az. Time Alt. Az. Time Alt. Az.
07 May 10.3 19:28:16 10° W 19:33:56 16° NW 19:38:11 10° NNW visible
08 May 10.1 18:11:46 10° W 18:23:36 32° NW 18:30:30 10° NNE visible
09 May 10.7 19:33:39 10° WNW 19:36:09 11° WNW 19:38:22 10° NW visible
10 May 10.3 18:14:59 10° W 18:25:55 26° NW 18:32:44 10° N visible
12 May 10.7 18:18:35 10° W 18:28:05 20° NW 18:34:31 10° N visible
14 May 12.1 05:55:11 10° NNE 06:03:46 14° ENE 06:13:20 10° E visible
14 May 11.0 18:22:56 10° W 18:30:07 15° WNW 18:35:33 10° NNW visible
16 May 11.9 05:53:33 10° NNE 06:05:26 19° NE 06:19:49 10° E visible
16 May 11.4 18:29:44 10° WNW 18:32:03 11° WNW 18:34:10 10° NW visible
